• In Hungary
  • List of Countries
  • For 7 days
  • Water Temperature
  • Satellite Maps
  • Weather Map
  • News
  • Weather Widgets
  • user-avatar
    Login

    Hourly Weather Potosi

    Today, 20 May, Sunday

    Time Temperature Precipitation Wind Pressure Humidity
    00:00 +4°C° 0 mm 1 mps 467 mmHg 75%
    01:00 +4°C° 0 mm 1 mps 466 mmHg 73%
    02:00 +3°C° 0 mm 1 mps 466 mmHg 71%
    03:00 +2°C° 0 mm 1 mps 466 mmHg 68%
    04:00 +2°C° 0 mm 1 mps 465 mmHg 64%
    05:00 +2°C° 0 mm 1 mps 465 mmHg 61%
    06:00 +3°C° 0 mm 1 mps 466 mmHg 55%
    07:00 +4°C° 0 mm 1 mps 467 mmHg 49%
    08:00 +5°C° 0 mm 1 mps 468 mmHg 43%
    09:00 +7°C° 0 mm 1 mps 469 mmHg 37%
    10:00 +8°C° 0 mm 2 mps 470 mmHg 30%
    11:00 +10°C° 0 mm 2 mps 471 mmHg 23%
    12:00 +10°C° 0 mm 2 mps 471 mmHg 21%
    13:00 +11°C° 0 mm 3 mps 471 mmHg 20%
    14:00 +12°C° 0 mm 3 mps 471 mmHg 18%
    15:00 +12°C° 0 mm 3 mps 470 mmHg 21%
    16:00 +11°C° 0 mm 3 mps 469 mmHg 23%
    17:00 +11°C° 0 mm 3 mps 469 mmHg 26%
    18:00 +9°C° 0 mm 3 mps 468 mmHg 32%
    19:00 +8°C° 0 mm 2 mps 467 mmHg 39%
    20:00 +6°C° 0 mm 2 mps 466 mmHg 45%
    21:00 +5°C° 0 mm 2 mps 466 mmHg 45%
    22:00 +5°C° 0 mm 2 mps 466 mmHg 44%
    23:00 +4°C° 0 mm 2 mps 466 mmHg 44%

    Tomorrow, 21 May, Monday

    Time Temperature Precipitation Wind Pressure Humidity
    00:00 +4°C° 0 mm 2 mps 465 mmHg 41%
    01:00 +3°C° 0 mm 2 mps 465 mmHg 39%
    02:00 +3°C° 0 mm 2 mps 465 mmHg 36%
    03:00 +2°C° 0 mm 2 mps 464 mmHg 32%
    04:00 +2°C° 0 mm 2 mps 464 mmHg 28%
    05:00 +1°C° 0 mm 2 mps 463 mmHg 25%
    06:00 +2°C° 0 mm 2 mps 464 mmHg 22%
    07:00 +3°C° 0 mm 2 mps 465 mmHg 19%
    08:00 +4°C° 0 mm 2 mps 466 mmHg 17%
    09:00 +6°C° 0 mm 2 mps 468 mmHg 13%
    10:00 +8°C° 0 mm 2 mps 469 mmHg 10%
    11:00 +12°C° 0 mm 2 mps 470 mmHg 6%
    12:00 +12°C° 0 mm 2 mps 470 mmHg 6%
    13:00 +13°C° 0 mm 2 mps 470 mmHg 6%
    14:00 +14°C° 0 mm 2 mps 470 mmHg 6%
    15:00 +13°C° 0 mm 3 mps 470 mmHg 8%
    16:00 +12°C° 0 mm 3 mps 470 mmHg 10%
    17:00 +12°C° 0 mm 3 mps 469 mmHg 12%
    18:00 +10°C° 0 mm 3 mps 468 mmHg 21%
    19:00 +7°C° 0 mm 2 mps 468 mmHg 30%
    20:00 +6°C° 0 mm 1 mps 467 mmHg 39%
    21:00 +6°C° 0 mm 1 mps 467 mmHg 45%
    22:00 +5°C° 0 mm 1 mps 467 mmHg 51%
    23:00 +4°C° 0 mm 1 mps 466 mmHg 57%

    Day after tomorrow, 22 May, Tuesday

    Time Temperature Precipitation Wind Pressure Humidity
    00:00 +4°C° 0 mm 1 mps 466 mmHg 59%
    01:00 +3°C° 0 mm 1 mps 465 mmHg 61%
    02:00 +2°C° 0 mm 1 mps 465 mmHg 64%
    03:00 +2°C° 0 mm 1 mps 464 mmHg 61%
    04:00 +1°C° 0 mm 1 mps 464 mmHg 59%
    05:00 +1°C° 0 mm 1 mps 463 mmHg 56%
    06:00 +2°C° 0 mm 1 mps 465 mmHg 50%
    07:00 +3°C° 0 mm 1 mps 466 mmHg 44%
    08:00 +5°C° 0 mm 1 mps 467 mmHg 38%
    09:00 +6°C° 0 mm 1 mps 468 mmHg 32%
    10:00 +8°C° 0 mm 1 mps 469 mmHg 26%
    11:00 +10°C° 0 mm 1 mps 471 mmHg 21%
    12:00 +10°C° 0 mm 2 mps 470 mmHg 20%
    13:00 +12°C° 0 mm 2 mps 470 mmHg 19%
    14:00 +11°C° 0 mm 3 mps 470 mmHg 18%
    15:00 +11°C° 0 mm 3 mps 470 mmHg 22%
    16:00 +10°C° 0 mm 4 mps 469 mmHg 27%
    17:00 +9°C° 0 mm 5 mps 469 mmHg 31%
    18:00 +7°C° 0 mm 4 mps 468 mmHg 40%
    19:00 +5°C° 0 mm 3 mps 468 mmHg 49%
    20:00 +4°C° 0 mm 3 mps 467 mmHg 57%
    21:00 +4°C° 0 mm 2 mps 467 mmHg 62%
    22:00 +3°C° 0 mm 2 mps 467 mmHg 67%
    23:00 +4°C° 0 mm 1 mps 467 mmHg 72%

    23 May, Wednesday

    Time Temperature Precipitation Wind Pressure Humidity
    00:00 +3°C° 0 mm 1 mps 466 mmHg 73%
    01:00 +3°C° 0 mm 1 mps 466 mmHg 75%
    02:00 +2°C° 0 mm 1 mps 466 mmHg 77%
    03:00 +2°C° 0 mm 1 mps 465 mmHg 76%
    04:00 +2°C° 0 mm 1 mps 465 mmHg 75%
    05:00 +1°C° 0 mm 1 mps 464 mmHg 73%
    06:00 +2°C° 0 mm 1 mps 466 mmHg 66%
    07:00 +3°C° 0 mm 1 mps 467 mmHg 59%
    08:00 +4°C° 0 mm 1 mps 468 mmHg 52%
    09:00 +6°C° 0 mm 1 mps 469 mmHg 45%
    10:00 +8°C° 0 mm 1 mps 470 mmHg 38%
    11:00 +10°C° 0 mm 1 mps 471 mmHg 30%
    12:00 +10°C° 0 mm 2 mps 471 mmHg 28%
    13:00 +10°C° 0 mm 2 mps 471 mmHg 26%
    14:00 +11°C° 0 mm 3 mps 471 mmHg 24%
    15:00 +11°C° 0 mm 3 mps 470 mmHg 28%
    16:00 +10°C° 0 mm 3 mps 470 mmHg 31%
    17:00 +10°C° 0 mm 3 mps 469 mmHg 34%
    18:00 +8°C° 0 mm 3 mps 469 mmHg 42%
    19:00 +7°C° 0 mm 2 mps 468 mmHg 50%
    20:00 +5°C° 0 mm 2 mps 468 mmHg 58%
    21:00 +5°C° 0 mm 2 mps 468 mmHg 63%
    22:00 +5°C° 0 mm 1 mps 468 mmHg 68%
    23:00 +4°C° 0 mm 1 mps 467 mmHg 73%

    24 May, Thursday

    Time Temperature Precipitation Wind Pressure Humidity
    00:00 +4°C° 0 mm 1 mps 467 mmHg 76%
    01:00 +3°C° 0 mm 1 mps 466 mmHg 78%
    02:00 +3°C° 0 mm 1 mps 466 mmHg 81%
    03:00 +2°C° 0 mm 1 mps 466 mmHg 80%
    04:00 +1°C° 0 mm 0 mps 465 mmHg 80%
    05:00 0°C° 0 mm 0 mps 465 mmHg 79%
    06:00 +1°C° 0 mm 0 mps 466 mmHg 73%
    07:00 +2°C° 0 mm 0 mps 467 mmHg 67%
    08:00 +4°C° 0 mm 1 mps 468 mmHg 61%
    09:00 +6°C° 0 mm 1 mps 469 mmHg 52%
    10:00 +7°C° 0 mm 1 mps 470 mmHg 43%
    11:00 +8°C° 0 mm 2 mps 471 mmHg 34%
    12:00 +9°C° 0 mm 2 mps 471 mmHg 31%
    13:00 +10°C° 0 mm 3 mps 471 mmHg 28%
    14:00 +11°C° 0 mm 3 mps 470 mmHg 25%
    15:00 +10°C° 0 mm 4 mps 470 mmHg 28%
    16:00 +8°C° 0 mm 4 mps 469 mmHg 32%
    17:00 +8°C° 0 mm 5 mps 469 mmHg 35%
    18:00 +6°C° 0 mm 4 mps 469 mmHg 42%
    19:00 +5°C° 0 mm 3 mps 468 mmHg 50%
    20:00 +4°C° 0 mm 2 mps 468 mmHg 57%
    21:00 +4°C° 0 mm 2 mps 467 mmHg 61%
    22:00 +3°C° 0 mm 2 mps 467 mmHg 65%
    23:00 +3°C° 0 mm 2 mps 467 mmHg 69%

    25 May, Friday

    Time Temperature Precipitation Wind Pressure Humidity
    00:00 +3°C° 0 mm 1 mps 466 mmHg 68%
    01:00 +3°C° 0 mm 1 mps 466 mmHg 68%
    02:00 +2°C° 0 mm 1 mps 465 mmHg 67%
    03:00 +2°C° 0 mm 1 mps 465 mmHg 63%
    04:00 +1°C° 0 mm 1 mps 465 mmHg 58%
    05:00 +1°C° 0 mm 1 mps 464 mmHg 54%
    06:00 +2°C° 0 mm 1 mps 465 mmHg 46%
    07:00 +3°C° 0 mm 1 mps 466 mmHg 38%
    08:00 +4°C° 0 mm 1 mps 468 mmHg 30%
    09:00 +6°C° 0 mm 1 mps 468 mmHg 24%
    10:00 +7°C° 0 mm 2 mps 469 mmHg 18%
    11:00 +9°C° 0 mm 2 mps 470 mmHg 13%
    12:00 +10°C° 0 mm 2 mps 470 mmHg 11%
    13:00 +10°C° 0 mm 3 mps 470 mmHg 10%
    14:00 +11°C° 0 mm 3 mps 470 mmHg 9%
    15:00 +11°C° 0 mm 3 mps 470 mmHg 11%
    16:00 +11°C° 0 mm 3 mps 469 mmHg 14%
    17:00 +10°C° 0 mm 3 mps 469 mmHg 16%
    18:00 +8°C° 0 mm 2 mps 468 mmHg 24%
    19:00 +6°C° 0 mm 2 mps 467 mmHg 32%
    20:00 +5°C° 0 mm 1 mps 467 mmHg 40%
    21:00 +5°C° 0 mm 1 mps 466 mmHg 45%
    22:00 +4°C° 0 mm 1 mps 466 mmHg 49%
    23:00 +3°C° 0 mm 1 mps 465 mmHg 54%
    Show more